Weather History for Thermal, CA

Change the Weather History Date:

Tuesday, February 19, 2013

  Actual Average Record
Temperature  
Mean Temperature 59 °F 59 °F  
Max Temperature 68 °F 75 °F 92 °F (1995)
Min Temperature 50 °F 42 °F 30 °F (1955)
Degree Days  
Heating Degree Days 6 7  
Month to date heating degree days 152 154  
Since 1 July heating degree days 979 1014  
Cooling Degree Days 0 0  
Month to date cooling degree days 0 0  
Year to date cooling degree days 0 2  
Growing Degree Days 10 (Base 50)    
Moisture  
Dew Point 35 °F    
Average Humidity 46    
Maximum Humidity 63    
Minimum Humidity 29    
Precipitation  
Precipitation 0.00 in 0.03 in 0.42 in (1958)
Month to date precipitation T 0.44  
Year to date precipitation 0.37 1.11  
Since 1 July precipitation 2.55 2.49  
Snow  
Snow 0.00 in - - ()
Month to date snowfall 0.0  
Year to date snowfall 0.0  
Since 1 July snowfall 0.0  
Snow Depth 0.00 in    
Sea Level Pressure  
Sea Level Pressure 29.75 in    
Wind  
Wind Speed 11 mph (NW)    
Max Wind Speed 20 mph    
Max Gust Speed 26 mph    
Visibility 10 miles    
Events      
T = Trace of Precipitation, MM = Missing Value Source: NWS Daily Summary

Daily Weather History Graph

Daily Weather History Graph

Search for Another Location

Airport:

Trip Planner

Search our weather history database for the weather conditions in past years. The results will help you decide how hot, cold, wet, or windy it might be!

Date:

Astronomy

Feb. 19, 2013 Rise Set
Actual Time 6:24 AM PST 5:33 PM PST
Civil Twilight 5:58 AM PST 5:58 PM PST
Nautical Twilight 5:29 AM PST 6:27 PM PST
Astronomical Twilight 5:01 AM PST 6:56 PM PST
Moon 12:16 PM PST (2/19) 1:51 AM PST (2/19)
Length of Visible Light 11h 59m
Length of Day
11h 08m
Waxing Gibbous, 68% of the Moon is Illuminated
Feb 19
Waxing Gibbous
Feb 25
Full
Mar 4
Last Quarter
Mar 11
New
Mar 19
First Quarter

Hourly Weather History & Observations

Time (PST) Temp. Dew Point Humidity Pressure Visibility Wind Dir Wind Speed Gust Speed Precip Events Conditions
12:52 AM 55.9 °F 42.1 °F 60% 29.84 in 10.0 mi NNW 6.9 mph - N/A   Clear
1:52 AM 55.9 °F 42.1 °F 60% 29.83 in 10.0 mi NNW 10.4 mph - N/A   Clear
2:52 AM 55.0 °F 41.0 °F 59% 29.81 in 10.0 mi NW 11.5 mph 17.3 mph N/A   Clear
3:52 AM 55.0 °F 39.9 °F 57% 29.80 in 10.0 mi NNW 17.3 mph 23.0 mph N/A   Clear
4:52 AM 55.0 °F 37.9 °F 53% 29.80 in 10.0 mi NNW 12.7 mph - N/A   Clear
5:52 AM 54.0 °F 37.0 °F 53% 29.81 in 10.0 mi NW 8.1 mph 18.4 mph N/A   Clear
6:52 AM 54.0 °F 36.0 °F 51% 29.82 in 10.0 mi NNW 15.0 mph - N/A   Clear
7:52 AM 57.0 °F 35.1 °F 44% 29.82 in 10.0 mi NNW 15.0 mph - N/A   Clear
8:52 AM 61.0 °F 34.0 °F 36% 29.81 in 10.0 mi NW 15.0 mph - N/A   Clear
10:52 AM 62.1 °F 30.9 °F 31% 29.80 in 10.0 mi NNW 11.5 mph 19.6 mph N/A   Clear
11:52 AM 63.0 °F 32.0 °F 31% 29.78 in 10.0 mi North 11.5 mph - N/A   Clear
12:52 PM 64.9 °F 32.0 °F 29% 29.74 in 10.0 mi Variable 5.8 mph - N/A   Clear
1:52 PM 66.9 °F 33.1 °F 28% 29.72 in 10.0 mi WNW 18.4 mph 23.0 mph N/A   Clear
2:52 PM 64.0 °F 34.0 °F 33% 29.70 in 10.0 mi NNW 12.7 mph - N/A   Clear
4:52 PM 63.0 °F 34.0 °F 34% 29.67 in 9.0 mi NW 21.9 mph 27.6 mph N/A   Clear
5:52 PM 61.0 °F 34.0 °F 36% 29.68 in 10.0 mi NNW 5.8 mph - N/A   Partly Cloudy
7:52 PM 57.9 °F 34.0 °F 41% 29.67 in 10.0 mi WNW 19.6 mph 33.4 mph N/A   Clear
8:52 PM 57.0 °F 33.1 °F 40% 29.68 in 10.0 mi WNW 13.8 mph 20.7 mph N/A   Partly Cloudy
9:52 PM 55.9 °F 30.0 °F 37% 29.68 in 8.0 mi West 23.0 mph 31.1 mph N/A   Clear
10:52 PM 55.0 °F 30.0 °F 38% 29.64 in 10.0 mi Variable 6.9 mph 20.7 mph N/A   Partly Cloudy
11:52 PM 53.1 °F 34.0 °F 48% 29.67 in 10.0 mi NNE 4.6 mph - N/A   Mostly Cloudy